When you browse on this site, cookies collect data to enhance your experience and personalize the content and advertising you see.
Visit our Privacy Policy to learn more. By continuing to use the site, you agree to this use of cookies and data.
  • în România
  • Lista ţărilor
  • Pe 7 zile
  • Temperatura apei
  • Hartă satelitară
  • Meteo pe hartă
  • Widget-uri
  • user-avatar
    Intrare

    Meteo pe oră la Franceville

    Astăzi, 22 Ianuarie, Marţi

    Timp Temperatura Precipitaţii Vânt Presiune Umiditate
    00:00 +26°C° 1.5 mm 1 m/s 732 mmHg 87%
    01:00 +26°C° 0 mm 1 m/s 732 mmHg 90%
    02:00 +26°C° 0.3 mm 1 m/s 731 mmHg 91%
    03:00 +25°C° 0.3 mm 1 m/s 731 mmHg 91%
    04:00 +23°C° 0.3 mm 0 m/s 731 mmHg 92%
    05:00 +23°C° 0.1 mm 0 m/s 731 mmHg 91%
    06:00 +24°C° 0.1 mm 0 m/s 732 mmHg 91%
    07:00 +24°C° 0 mm 0 m/s 732 mmHg 88%
    08:00 +28°C° 0 mm 1 m/s 732 mmHg 78%
    09:00 +30°C° 0 mm 1 m/s 732 mmHg 69%
    10:00 +32°C° 0 mm 2 m/s 733 mmHg 59%
    11:00 +33°C° 0.1 mm 1 m/s 732 mmHg 56%
    12:00 +34°C° 0.1 mm 1 m/s 731 mmHg 52%
    13:00 +34°C° 0 mm 1 m/s 731 mmHg 51%
    14:00 +34°C° 0.1 mm 1 m/s 731 mmHg 52%
    15:00 +34°C° 0.1 mm 1 m/s 730 mmHg 52%
    16:00 +31°C° 0.1 mm 0 m/s 730 mmHg 53%
    17:00 +32°C° 0.2 mm 1 m/s 730 mmHg 60%
    18:00 +30°C° 0.2 mm 1 m/s 730 mmHg 68%
    19:00 +28°C° 0.2 mm 1 m/s 731 mmHg 75%
    20:00 +28°C° 0.4 mm 1 m/s 731 mmHg 80%
    21:00 +27°C° 0.4 mm 1 m/s 732 mmHg 85%
    22:00 +26°C° 0.4 mm 1 m/s 732 mmHg 90%
    23:00 +26°C° 0.5 mm 1 m/s 732 mmHg 91%

    Mâine, 23 Ianuarie, Miercuri

    Timp Temperatura Precipitaţii Vânt Presiune Umiditate
    00:00 +25°C° 0.5 mm 1 m/s 732 mmHg 93%
    01:00 +25°C° 0.5 mm 1 m/s 732 mmHg 94%
    02:00 +25°C° 0.2 mm 1 m/s 732 mmHg 95%
    03:00 +24°C° 0.2 mm 1 m/s 732 mmHg 95%
    04:00 +24°C° 0.2 mm 1 m/s 731 mmHg 95%
    05:00 +24°C° 0 mm 1 m/s 732 mmHg 94%
    06:00 +24°C° 0 mm 1 m/s 732 mmHg 93%
    07:00 +24°C° 0 mm 1 m/s 732 mmHg 93%
    08:00 +27°C° 0 mm 1 m/s 733 mmHg 83%
    09:00 +29°C° 0 mm 1 m/s 733 mmHg 73%
    10:00 +31°C° 0 mm 2 m/s 733 mmHg 63%
    11:00 +34°C° 0 mm 2 m/s 733 mmHg 56%
    12:00 +34°C° 0 mm 1 m/s 732 mmHg 50%
    13:00 +36°C° 0 mm 1 m/s 731 mmHg 44%
    14:00 +36°C° 0.3 mm 2 m/s 731 mmHg 50%
    15:00 +34°C° 0.3 mm 2 m/s 730 mmHg 56%
    16:00 +32°C° 0.3 mm 2 m/s 729 mmHg 62%
    17:00 +30°C° 0.8 mm 2 m/s 730 mmHg 70%
    18:00 +28°C° 0.8 mm 2 m/s 730 mmHg 78%
    19:00 +27°C° 0.8 mm 2 m/s 731 mmHg 85%
    20:00 +26°C° 0.1 mm 2 m/s 731 mmHg 87%
    21:00 +26°C° 0.1 mm 2 m/s 732 mmHg 88%
    22:00 +26°C° 0.1 mm 2 m/s 733 mmHg 89%
    23:00 +26°C° 0 mm 1 m/s 732 mmHg 90%

    Poimâine, 24 Ianuarie, Joi

    Timp Temperatura Precipitaţii Vânt Presiune Umiditate
    00:00 +25°C° 0 mm 1 m/s 732 mmHg 91%
    01:00 +25°C° 0 mm 1 m/s 732 mmHg 92%
    02:00 +25°C° 0 mm 1 m/s 731 mmHg 91%
    03:00 +25°C° 0 mm 1 m/s 731 mmHg 91%
    04:00 +25°C° 0 mm 1 m/s 730 mmHg 90%
    05:00 +25°C° 0 mm 1 m/s 731 mmHg 90%
    06:00 +25°C° 0 mm 1 m/s 731 mmHg 90%
    07:00 +25°C° 0 mm 1 m/s 731 mmHg 90%
    08:00 +27°C° 0 mm 1 m/s 732 mmHg 78%
    09:00 +30°C° 0 mm 1 m/s 732 mmHg 66%
    10:00 +32°C° 0 mm 1 m/s 732 mmHg 54%
    11:00 +34°C° 0 mm 1 m/s 732 mmHg 48%
    12:00 +36°C° 0 mm 1 m/s 731 mmHg 42%
    13:00 +39°C° 0 mm 1 m/s 730 mmHg 36%
    14:00 +39°C° 0 mm 1 m/s 730 mmHg 36%
    15:00 +37°C° 0 mm 1 m/s 729 mmHg 36%
    16:00 +37°C° 0 mm 1 m/s 728 mmHg 37%
    17:00 +35°C° 0 mm 1 m/s 728 mmHg 43%
    18:00 +33°C° 0 mm 1 m/s 728 mmHg 50%
    19:00 +30°C° 0 mm 1 m/s 728 mmHg 56%
    20:00 +29°C° 0.1 mm 1 m/s 729 mmHg 61%
    21:00 +29°C° 0.1 mm 1 m/s 730 mmHg 65%
    22:00 +28°C° 0.1 mm 1 m/s 730 mmHg 69%
    23:00 +25°C° 0.6 mm 0 m/s 730 mmHg 76%

    25 Ianuarie, Vineri

    Timp Temperatura Precipitaţii Vânt Presiune Umiditate
    00:00 +24°C° 0.6 mm 0 m/s 730 mmHg 82%
    01:00 +23°C° 0.6 mm 0 m/s 730 mmHg 88%
    02:00 +23°C° 0 mm 0 m/s 730 mmHg 89%
    03:00 +23°C° 0 mm 0 m/s 730 mmHg 90%
    04:00 +23°C° 0 mm 0 m/s 730 mmHg 92%
    05:00 +23°C° 0 mm 0 m/s 730 mmHg 91%
    06:00 +23°C° 0 mm 0 m/s 731 mmHg 91%
    07:00 +23°C° 0 mm 0 m/s 731 mmHg 91%
    08:00 +25°C° 0 mm 0 m/s 731 mmHg 84%
    09:00 +28°C° 0 mm 1 m/s 732 mmHg 77%
    10:00 +30°C° 0 mm 1 m/s 732 mmHg 70%
    11:00 +32°C° 0 mm 1 m/s 731 mmHg 61%
    12:00 +35°C° 0 mm 1 m/s 731 mmHg 51%
    13:00 +39°C° 0 mm 1 m/s 730 mmHg 41%
    14:00 +37°C° 0 mm 1 m/s 729 mmHg 40%
    15:00 +37°C° 0 mm 1 m/s 729 mmHg 39%
    16:00 +37°C° 0 mm 1 m/s 728 mmHg 38%
    17:00 +35°C° 0 mm 1 m/s 728 mmHg 46%
    18:00 +33°C° 0 mm 1 m/s 729 mmHg 53%
    19:00 +31°C° 0 mm 1 m/s 729 mmHg 61%
    20:00 +29°C° 0.5 mm 1 m/s 730 mmHg 69%
    21:00 +28°C° 0.5 mm 1 m/s 730 mmHg 77%
    22:00 +27°C° 0.5 mm 1 m/s 731 mmHg 85%
    23:00 +26°C° 0.5 mm 1 m/s 731 mmHg 87%

    26 Ianuarie, Sâmbătă

    Timp Temperatura Precipitaţii Vânt Presiune Umiditate
    00:00 +26°C° 0.5 mm 1 m/s 731 mmHg 89%
    01:00 +26°C° 0.5 mm 1 m/s 730 mmHg 91%
    02:00 +26°C° 1.3 mm 1 m/s 730 mmHg 92%
    03:00 +25°C° 1.3 mm 1 m/s 730 mmHg 92%
    04:00 +25°C° 1.3 mm 1 m/s 730 mmHg 93%
    05:00 +25°C° 0.1 mm 1 m/s 730 mmHg 93%
    06:00 +25°C° 0.1 mm 1 m/s 731 mmHg 93%
    07:00 +25°C° 0.1 mm 1 m/s 731 mmHg 93%
    08:00 +28°C° 0 mm 1 m/s 732 mmHg 83%
    09:00 +30°C° 0 mm 1 m/s 732 mmHg 72%
    10:00 +32°C° 0 mm 1 m/s 733 mmHg 62%
    11:00 +32°C° 2.4 mm 1 m/s 732 mmHg 67%
    12:00 +31°C° 2.4 mm 1 m/s 731 mmHg 71%
    13:00 +31°C° 2.4 mm 1 m/s 731 mmHg 75%
    14:00 +30°C° 1.8 mm 1 m/s 730 mmHg 79%
    15:00 +29°C° 1.8 mm 1 m/s 730 mmHg 82%
    16:00 +29°C° 1.8 mm 1 m/s 729 mmHg 85%
    17:00 +28°C° 0.1 mm 1 m/s 730 mmHg 88%
    18:00 +25°C° 0.1 mm 0 m/s 730 mmHg 90%
    19:00 +25°C° 0.1 mm 0 m/s 730 mmHg 93%
    20:00 +24°C° 0 mm 0 m/s 731 mmHg 93%
    21:00 +26°C° 0 mm 1 m/s 731 mmHg 93%
    22:00 +26°C° 0 mm 1 m/s 732 mmHg 93%
    23:00 +25°C° 0 mm 1 m/s 732 mmHg 94%

    27 Ianuarie, Duminică

    Timp Temperatura Precipitaţii Vânt Presiune Umiditate
    00:00 +23°C° 0 mm 0 m/s 732 mmHg 94%
    01:00 +23°C° 0 mm 0 m/s 731 mmHg 94%
    02:00 +23°C° 0 mm 0 m/s 731 mmHg 95%
    03:00 +22°C° 0 mm 0 m/s 731 mmHg 96%
    04:00 +24°C° 0 mm 1 m/s 731 mmHg 96%
    05:00 +24°C° 0 mm 1 m/s 731 mmHg 95%
    06:00 +25°C° 0 mm 1 m/s 731 mmHg 94%
    07:00 +25°C° 0 mm 1 m/s 732 mmHg 92%
    08:00 +27°C° 0 mm 1 m/s 732 mmHg 82%
    09:00 +29°C° 0 mm 2 m/s 732 mmHg 72%
    10:00 +31°C° 0 mm 2 m/s 733 mmHg 62%
    11:00 +34°C° 0 mm 2 m/s 732 mmHg 57%
    12:00 +35°C° 0 mm 2 m/s 731 mmHg 51%
    13:00 +36°C° 0 mm 2 m/s 731 mmHg 45%
    14:00 +34°C° 0 mm 1 m/s 730 mmHg 49%
    15:00 +33°C° 0 mm 1 m/s 729 mmHg 54%
    16:00 +32°C° 0 mm 1 m/s 729 mmHg 58%
    17:00 +30°C° 0.8 mm 1 m/s 729 mmHg 67%
    18:00 +29°C° 0.8 mm 1 m/s 729 mmHg 76%
    19:00 +27°C° 0.8 mm 1 m/s 730 mmHg 85%
    20:00 +27°C° 0.2 mm 1 m/s 730 mmHg 87%
    21:00 +26°C° 0.2 mm 1 m/s 731 mmHg 89%
    22:00 +26°C° 0.2 mm 1 m/s 731 mmHg 91%
    23:00 +26°C° 0.1 mm 1 m/s 731 mmHg 92%
    Arată mai mult